FENGYUN 1C DEB

Satellite information

Favourite Embed

Satellite Type and Status

DEBRISIN ORBIT

Key statistics

Satellite FENGYUN 1C DEB at a glance.

Uptime

9495

Days in orbit

Revolutions

≈ 14.4

Per day

Orbit

SSO

Sun Synchronous Orbit

Inclination

98.2

Latest

Satellite identification and parameters

Extended collection of information and parameters for FENGYUN 1C DEB.

Object identification

Identified? True

Debris? True

Object name: FENGYUN 1C DEB

International designator: 1999-025ATR

Object number (NORAD): 30755

Object ID (CCSDS): 30755

Country: PEOPLES REPUBLIC OF CHINA (PRC)

Current information (Y/N): Y

RCS size: SMALL

Orbital parameters

Period: 99.737 minutes

Inclination: 98.2495 deg

SMA: 7124.098 km

Apoapsis: 855.437 km

Periapsis: 636.488 km

RAAN: 126.8949 deg

Eccentricy: 0.0153668

Argument of periapsis: 219.1894 deg

Mean anomaly: 169.5641 deg

Mean motion: 14.43803044 rev/day

Mean motion (dot): 0.00001908 rev/day2

B* drag term: 0.00049801 1/REarth

Two-line elements (TLE)

Creation date: May 6, 2025, 6:46 a.m.

Reference frame: TEME

Reference center: EARTH

Epoch: May 5, 2025, 11:07 p.m. UTC

TLE line 0: 0 FENGYUN 1C DEB

TLE line 1: 1 30755U 99025ATR 25125.96331110 .00001908 00000-0 49801-3 0 9997

TLE line 2: 2 30755 98.2495 126.8949 0153668 219.1894 169.5641 14.43803044952684

Live tracking on map

Real-time ground track for satellite FENGYUN 1C DEB.

In-orbit conjunctions

A list of the most updated potential collisions computed for object FENGYUN 1C DEB.

Target Orbit TCA Probability of collision Miss distance Type
ASUSAT SSO 2024-12-30 22:34:22 0.0001115617 704.0 (m) PAYLOAD

Associated space launch

Chinese polar orbiting meteorological satellite

FENGYUN 1C DEB was lifted into orbit during the mission ‘Long March 4B | Feng Yun 1C’, on board a Long March 4B space rocket.

The launch took place on May 10, 1999, 1:33 a.m. from Launch Complex 7.

For more information about the launch, click the button.

Launch to space Long March 4B | Feng Yun 1C
Long March 4B | Feng Yun 1C

Agency: N/A

Status: Launch Successful

Launch date: May 10, 1999, 1:33 a.m. UTC

Rocket: Long March 4B

Launch pad: Launch Complex 7

Location: Taiyuan Satellite Launch Center, People's Republic of China

...

Latest news about this satellite

There are no fresh news available about this satellite. Check back as we update our databases every day.


Newsletter sign-up

Weekly statistics, charts and insights to help you stay on top of the space industry.